FLOCK 4A-18 (44089 NORAD) Tracking and Keplerian Element Data

This shows tracking and keplerian element data for the satellite.

Feedback or suggestion? Click here.




ElementValue
Catalog44089
NameFLOCK 4A-18
Epoch Orbit309
Epoch Day111.72592808
Epoch Year2019
RAAN172.1091
Inclination97.4627
Eccentricity0.0013329
Argument of Perigee207.116
Mean Anonmoly152.9381
Mean Motion15.21512241
Decay Rate5.15E-06
L11 44089U 19018M 19111.72592808 .00000515 00000-0 25959-4 0 9993
L22 44089 97.4627 172.1091 0013329 207.1160 152.9381 15.21512241 3093

Live tracking and technical data element details for FLOCK 4A-18 (NORAD 44089). FLOCK 4A-18 can be tracked NOW for your location showing map with azimuth and elevation plus other details from your city location.

Track the satellite on the map from your city or location and see movement details for azimuth, elevation, latitude, longitude, range, height, and movement on the map or in text.







IsCatalogInMostPopularTable: catalog: 44089, numindb: 10
Update: records affected: 1



GetName: 44089 FLOCK 4A-18

Hit Count: updated at: Tue, 23 Apr 2019 02:15:04 GMT